Regional Weather Roundup
Issued by NWS Burlington, VT

Home | Current Version | Previous Version | Text Only | Print | Product List | Glossary On
Versions: 1 2 3 4 5 6 7 8 9 10 11 12 13 14 15 16 17 18 19 20 21 22 23 24 25 26 27 28 29 30 31 32 33 34 35 36 37 38 39 40 41 42 43 44 45 46 47 48 49 50
000
ASUS41 KBTV 221630
RWRBTV
VERMONT REGIONAL WEATHER ROUNDUP
NATIONAL WEATHER SERVICE BURLINGTON VT
1100 AM EST MON DEC 22 2014

NOTE: "FAIR" INDICATES FEW OR NO CLOUDS BELOW 12,000 FEET WITH NO
SIGNIFICANT WEATHER AND/OR OBSTRUCTIONS TO VISIBILITY.

* THESE REPORTS ARE NOT UNDER NWS QUALITY CONTROL AND/OR DO NOT
  REPORT WEATHER SUCH AS PRECIPITATION AND FOG.

VTZ001>019-221700-
_____VERMONT_____


CITY           SKY/WX    TMP DP  RH WIND       PRES   REMARKS
BURLINGTON     CLOUDY    25  20  81 N3        30.37F FOG
MONTPELIER     CLOUDY    26  22  84 CALM      30.37F
MORRISVILLE    CLOUDY    28  22  78 CALM      30.36F
ST. JOHNSBURY*   N/A     29  23  78 MISG      30.35F
LYNDONVILLE*   CLOUDY    28  22  77 CALM      30.34F
MIDDLEBURY*    CLOUDY    30  27  89 CALM      30.34F
RUTLAND*       CLOUDY    34  27  75 S6        30.32F
SPRINGFIELD    CLOUDY    31  28  89 CALM      30.37F
HIGHGATE*      CLOUDY    19  18  93 CALM      30.38F FOG
NEWPORT*       CLOUDY    25  21  85 CALM      30.34F FOG
BENNINGTON     CLOUDY    37  29  72 SE12      30.31F
GALLUP MILLS*    N/A     30 N/A N/A MISG        N/A
UNION VILLAGE*   N/A     32 N/A N/A MISG        N/A
MT. MANSFIELD*   N/A     25 N/A N/A CALM        N/A

_____LAKE CHAMPLAIN_____


CITY           SKY/WX    TMP DP  RH WIND       PRES   REMARKS
BURTON ISLAND*   N/A     23  21  93 NW3         N/A
COLCHESTER RF*   N/A     25  25 100 N7          N/A

$$

NYZ007-026>031-035-052-083-221700-
_____NORTHERN NEW YORK_____


CITY           SKY/WX    TMP DP  RH WIND       PRES   REMARKS
PLATTSBURGH    CLOUDY    21  20  96 N3        30.39F FOG
SARANAC LAKE   SUNNY     23  18  81 NE8       30.24F
MASSENA        CLOUDY    22  17  81 NE10      30.37F WCI  11
OGDENSBURG*    PTSUNNY   23  21  93 NE5       30.34F FOG
POTSDAM*       CLOUDY    19  19 100 E6        30.33F FOG
STARK FALLS*     N/A     27 N/A N/A SE2         N/A
WATERTOWN      CLOUDY    32  23  69 NE7       30.29F
ALBANY         FLURRIES  31  25  78 NW3       30.36F
GLENS FALLS    CLOUDY    30  25  81 CALM      30.35F

$$
NHZ002-005-011-221700-
_____NEW HAMPSHIRE_____


CITY           SKY/WX    TMP DP  RH WIND       PRES   REMARKS
LEBANON        CLOUDY    31  26  82 CALM      30.36F
KEENE          CLOUDY    36  30  80 CALM      30.35F
MT WASHINGTON  CLOUDY    19   0  42 W15         N/A  WCI   5
PLYMOUTH       CLOUDY    32  30  92 CALM      30.36F
WHITEFIELD     CLOUDY    29  24  82 CALM      30.34F

$$

_____REGIONAL QUEBEC LOCATIONS_____


CITY           SKY/WX    TMP DP  RH WIND       PRES   REMARKS
MONTREAL       LGT SNOW  19  16  86 NE7       30.41  FOG
QUEBEC CITY    FLURRIES  19  12  73 NE3       30.44
SHERBROOKE     CLOUDY    25  23  93 NE3       30.36F

_____REGIONAL ONTARIO LOCATIONS_____


CITY           SKY/WX    TMP DP  RH WIND       PRES   REMARKS
OTTAWA         CLOUDY    19  18  93 NE8       30.37  FOG

______KEY______
VSB  - VISIBILITY IN MILES
WCI  - WIND CHILL INDEX
HX   - HEAT INDEX
$$
NNNN


USA.gov is the U.S. government's official web portal to all federal, state and local government web resources and services.